Погода в Караванном

Россия / Астраханская область     45°59′19″N   47°08′07″E
темп.,
°C
ветер,
м/с
пор.,
м/с
влажн.,
%
обл.,
%
осадки,
мм/ч
давл.,
гПа
погр.,
м
5 августа, чт
чт501:00+29в4528100 0.0 101169
04:00+28ссв4846100 0.0 1011193
07:00+28ссв5114597 0.0 1012478
10:00+32ссв893797 0.0 1012856
13:00+35ссв772834 0.0 10121637
16:00+37ссв752311 0.0 10112250
19:00+35с7723100 0.0 10111702
22:00+31ссв712285 0.0 1012389
6 августа, пт
пт601:00+28ссв612307 0.0 1012360
04:00+27св612336 0.0 1012314
07:00+27всв611335 0.0 1012418
10:00+33всв77225 0.0 1012988
13:00+36св55180 0.0 10111889
16:00+37всв44170 0.0 10092425
19:00+35юв65230 0.0 10091073
22:00+28в49370 0.0 1010250
7 августа, сб
сб701:00+26всв49390 0.0 1009185
04:00+25всв5133898 0.0 1009265
07:00+26всв71441100 0.0 1009418
10:00+35в1011227 0.0 10091190
13:00+37вюв11111897 0.0 10081595
16:00+37вюв1011185 0.0 10071381
19:00+34в911210 0.0 1007750
22:00+29в715280 0.0 1008354
8 августа, вс
вс801:00+27в616383 0.0 1008336
04:00+27в6163943 0.0 1008386
07:00+28в917447 0.0 1008493
10:00+36вюв10122198 0.0 10081167
13:00+38вюв101018100 0.0 10081555
16:00+38вюв10101899 0.0 10081292
19:00+35вюв811213 0.0 1008875
22:00+28вюв5114559 0.0 1009300
9 августа, пн
пн901:00+26вюв35665 0.0 1009127
04:00+26в356645 0.0 100999
07:00+27в336384 0.0 1010160
10:00+33всв22415 0.0 1010781
13:00+38всв21255 0.0 10101858
16:00+40в532224 0.0 10092737
19:00+37в65205 0.0 10091005
22:00+31юв2233100 0.0 101020